ITY629 KORD-LIRF

Flight info

Callsign ITY629
Flight time N/A
Altitude 41000
Route MOBLE DCT ADIME DCT DKK DCT SYR DCT ALLEX DCT NICSO/M084F410 NATS BEXET/N0486F410 DCT KER DCT LEDGO DCT DOLUR DCT TERKU DCT KORER DCT LEMKA DCT BEBIX DCT LERGA DCT TOZOT DCT OTROT DCT RETNO DCT KOLON DCT RAPUR DCT RATAP DCT BTA DCT MOULE DCT XOPTA DCT ELB DCT ELKAP
Aircraft A359/H-SDE2E3GHIJ3J4J5LM1ORWXY/LB1D1

Departure

Time 2026-05-04 20:15
Airport Chicago O'Hare International Airport (KORD)

Arrival

Time N/A
Airport Rome–Fiumicino Leonardo da Vinci International Airport (LIRF)
Time Latitude Longitude Altitude Speed Heading
2026-05-04 19:05 41.97437 -87.89227 675 ft 0 kts 108°
2026-05-04 20:03 41.97445 -87.89255 675 ft 4 kts 116°
2026-05-04 20:03 41.97458 -87.89286 675 ft 4 kts 128°
2026-05-04 20:03 41.97476 -87.89312 672 ft 4 kts 143°
2026-05-04 20:03 41.97499 -87.89330 673 ft 4 kts 165°
2026-05-04 20:04 41.97516 -87.89334 675 ft 0 kts 180°
2026-05-04 20:05 41.97516 -87.89333 675 ft 0 kts 180°
2026-05-04 20:06 41.97515 -87.89333 675 ft 0 kts 180°
2026-05-04 20:11 41.97482 -87.89332 675 ft 11 kts 179°
2026-05-04 20:11 41.97425 -87.89332 675 ft 7 kts 180°
2026-05-04 20:11 41.97368 -87.89332 673 ft 9 kts 180°
2026-05-04 20:11 41.97301 -87.89335 675 ft 0 kts 185°
2026-05-04 20:12 41.97299 -87.89335 675 ft 2 kts 182°
2026-05-04 20:12 41.97254 -87.89333 675 ft 11 kts 175°
2026-05-04 20:12 41.97198 -87.89255 675 ft 15 kts 98°
2026-05-04 20:12 41.97195 -87.89077 675 ft 23 kts 90°
2026-05-04 20:13 41.97195 -87.88824 675 ft 31 kts 90°
2026-05-04 20:13 41.97195 -87.88613 675 ft 3 kts 90°
2026-05-04 20:13 41.97195 -87.88535 675 ft 14 kts 90°
2026-05-04 20:13 41.97147 -87.88454 675 ft 14 kts 161°
2026-05-04 20:14 41.97056 -87.88443 675 ft 16 kts 175°
2026-05-04 20:14 41.96952 -87.88438 674 ft 15 kts 185°
2026-05-04 20:14 41.96912 -87.88510 674 ft 0 kts 266°
2026-05-04 20:14 41.96908 -87.88590 674 ft 31 kts 268°
2026-05-04 20:15 41.96903 -87.89186 675 ft 94 kts 271°
2026-05-04 20:15 41.96902 -87.90314 674 ft 146 kts 271°
2026-05-04 20:15 41.96913 -87.91800 1038 ft 160 kts 266°
2026-05-04 20:15 41.96908 -87.93272 1710 ft 156 kts 266°
2026-05-04 20:16 41.96679 -87.94725 1988 ft 168 kts 234°
2026-05-04 20:16 41.95680 -87.95556 2172 ft 186 kts 191°
2026-05-04 20:16 41.94348 -87.95116 2351 ft 213 kts 147°
2026-05-04 20:16 41.93518 -87.93392 2646 ft 234 kts 103°
2026-05-04 20:17 41.93637 -87.91196 3130 ft 242 kts 73°
2026-05-04 20:17 41.94356 -87.89114 3601 ft 248 kts 58°
2026-05-04 20:17 41.95292 -87.87204 4149 ft 249 kts 54°
2026-05-04 20:17 41.96217 -87.85229 4648 ft 252 kts 68°
2026-05-04 20:18 41.96704 -87.82964 4950 ft 252 kts 82°
2026-05-04 20:18 41.96851 -87.80609 5154 ft 257 kts 91°
2026-05-04 20:18 41.96800 -87.78136 5362 ft 274 kts 95°
2026-05-04 20:18 41.96660 -87.75507 5631 ft 289 kts 96°
2026-05-04 20:19 41.96507 -87.72774 6109 ft 296 kts 95°
2026-05-04 20:19 41.96374 -87.69999 6714 ft 299 kts 95°
2026-05-04 20:19 41.96268 -87.67194 7348 ft 302 kts 94°
2026-05-04 20:19 41.96179 -87.64352 7972 ft 307 kts 94°
2026-05-04 20:20 41.96100 -87.61474 8554 ft 310 kts 93°
2026-05-04 20:20 41.96025 -87.58562 9204 ft 313 kts 93°
2026-05-04 20:20 41.95951 -87.55616 9825 ft 316 kts 93°
2026-05-04 20:20 41.95876 -87.52633 10272 ft 326 kts 93°
2026-05-04 20:21 41.95793 -87.49525 10510 ft 342 kts 94°
2026-05-04 20:21 41.95706 -87.46259 10747 ft 358 kts 94°
2026-05-04 20:21 41.95516 -87.39307 11231 ft 385 kts 93°
2026-05-04 20:22 41.95415 -87.35644 11441 ft 402 kts 93°
2026-05-04 20:22 41.95313 -87.31832 11716 ft 412 kts 94°
2026-05-04 20:22 41.95198 -87.27956 12168 ft 418 kts 94°
2026-05-04 20:22 41.95082 -87.24025 12616 ft 423 kts 94°
2026-05-04 20:23 41.94963 -87.20060 13066 ft 427 kts 94°
2026-05-04 20:23 41.94845 -87.16064 13578 ft 430 kts 94°
2026-05-04 20:23 41.94725 -87.12035 14049 ft 433 kts 93°
2026-05-04 20:23 41.94603 -87.07972 14556 ft 436 kts 93°
2026-05-04 20:24 41.94495 -87.03884 15039 ft 440 kts 92°
2026-05-04 20:24 41.94501 -86.99805 15503 ft 443 kts 89°
2026-05-04 20:24 41.94586 -86.95655 15996 ft 446 kts 88°
2026-05-04 20:24 41.94698 -86.91466 16469 ft 450 kts 88°
2026-05-04 20:25 41.94805 -86.87259 16926 ft 453 kts 88°
2026-05-04 20:25 41.94898 -86.83022 17420 ft 455 kts 88°
2026-05-04 20:25 41.94976 -86.78763 17870 ft 458 kts 89°
2026-05-04 20:25 41.95042 -86.74477 18314 ft 460 kts 89°
2026-05-04 20:26 41.95101 -86.70169 18763 ft 463 kts 89°
2026-05-04 20:26 41.95157 -86.65828 19211 ft 466 kts 89°
2026-05-04 20:26 41.95211 -86.61476 19648 ft 468 kts 89°
2026-05-04 20:26 41.95263 -86.57088 20117 ft 470 kts 89°
2026-05-04 20:27 41.95315 -86.52681 20582 ft 473 kts 89°
2026-05-04 20:27 41.95365 -86.48250 21021 ft 476 kts 89°
2026-05-04 20:27 41.95399 -86.45244 21331 ft 478 kts 89°
2026-05-04 20:27 41.95448 -86.40834 21771 ft 480 kts 89°
2026-05-04 20:28 41.95495 -86.36324 22216 ft 484 kts 89°
2026-05-04 20:28 41.95541 -86.31793 22696 ft 486 kts 89°
2026-05-04 20:28 41.95585 -86.27242 23185 ft 488 kts 89°
2026-05-04 20:28 41.95676 -86.22676 23612 ft 491 kts 85°
2026-05-04 20:29 41.96028 -86.18105 24031 ft 493 kts 82°
2026-05-04 20:29 41.96463 -86.13531 24462 ft 496 kts 81°
2026-05-04 20:29 41.96941 -86.08931 24884 ft 498 kts 81°
2026-05-04 20:29 41.97440 -86.04316 25288 ft 500 kts 80°
2026-05-04 20:30 41.97945 -85.99676 25679 ft 503 kts 80°
2026-05-04 20:30 41.98449 -85.95019 26082 ft 505 kts 80°
2026-05-04 20:30 41.98950 -85.90334 26473 ft 507 kts 80°
2026-05-04 20:30 41.99448 -85.85632 26871 ft 510 kts 80°
2026-05-04 20:31 41.99945 -85.80904 27234 ft 512 kts 80°
2026-05-04 20:31 42.00442 -85.76138 27611 ft 514 kts 80°
2026-05-04 20:31 42.00935 -85.71362 27973 ft 516 kts 80°
2026-05-04 20:31 42.01427 -85.66574 28319 ft 518 kts 80°
2026-05-04 20:32 42.01920 -85.61770 28633 ft 521 kts 80°
2026-05-04 20:32 42.02415 -85.56930 28944 ft 523 kts 80°
2026-05-04 20:32 42.02909 -85.52086 29249 ft 525 kts 80°
2026-05-04 20:32 42.03405 -85.47213 29541 ft 527 kts 80°
2026-05-04 20:33 42.03893 -85.42381 29785 ft 529 kts 80°
2026-05-04 20:33 42.04388 -85.37470 30048 ft 531 kts 80°
2026-05-04 20:33 42.04881 -85.32541 30445 ft 529 kts 80°
2026-05-04 20:33 42.05369 -85.27644 30836 ft 528 kts 80°
2026-05-04 20:34 42.05855 -85.22759 31136 ft 528 kts 80°
2026-05-04 20:34 42.06340 -85.17855 31391 ft 529 kts 80°
2026-05-04 20:34 42.06824 -85.12935 31690 ft 529 kts 81°
2026-05-04 20:34 42.07303 -85.08034 32024 ft 527 kts 81°
2026-05-04 20:35 42.07778 -85.03154 32328 ft 527 kts 81°
2026-05-04 20:35 42.08253 -84.98261 32583 ft 527 kts 81°
2026-05-04 20:35 42.08725 -84.93374 32876 ft 526 kts 81°
2026-05-04 20:35 42.09195 -84.88489 33182 ft 525 kts 81°
2026-05-04 20:36 42.09662 -84.83613 33476 ft 524 kts 81°
2026-05-04 20:36 42.10125 -84.78745 33704 ft 525 kts 81°
2026-05-04 20:36 42.10588 -84.73872 33950 ft 524 kts 80°
2026-05-04 20:36 42.11047 -84.69002 34217 ft 523 kts 81°
2026-05-04 20:37 42.11502 -84.64150 34480 ft 522 kts 81°
2026-05-04 20:37 42.11956 -84.59294 34749 ft 521 kts 81°
2026-05-04 20:37 42.12407 -84.54456 34924 ft 522 kts 81°
2026-05-04 20:37 42.12859 -84.49592 35120 ft 522 kts 81°
2026-05-04 20:38 42.13307 -84.44746 35347 ft 521 kts 81°
2026-05-04 20:38 42.13751 -84.39914 35549 ft 521 kts 81°
2026-05-04 20:38 42.14195 -84.35061 35739 ft 521 kts 81°
2026-05-04 20:38 42.14630 -84.30280 35919 ft 521 kts 81°
2026-05-04 20:39 42.15072 -84.25387 36112 ft 521 kts 81°
2026-05-04 20:39 42.15510 -84.20533 36312 ft 520 kts 81°
2026-05-04 20:39 42.15937 -84.15769 36469 ft 520 kts 81°
2026-05-04 20:39 42.16370 -84.10920 36596 ft 520 kts 81°
2026-05-04 20:40 42.16800 -84.06073 36757 ft 520 kts 81°
2026-05-04 20:40 42.17225 -84.01251 36971 ft 518 kts 81°
2026-05-04 20:40 42.17648 -83.96441 37182 ft 516 kts 81°
2026-05-04 20:40 42.18068 -83.91645 37380 ft 514 kts 81°
2026-05-04 20:41 42.18483 -83.86858 37537 ft 513 kts 81°
2026-05-04 20:41 42.18896 -83.82081 37676 ft 512 kts 81°
2026-05-04 20:41 42.19721 -83.72514 37809 ft 514 kts 81°
2026-05-04 20:42 42.20538 -83.62946 37960 ft 515 kts 81°
2026-05-04 20:42 42.21348 -83.53337 38123 ft 515 kts 81°
2026-05-04 20:43 42.22149 -83.43717 38281 ft 515 kts 81°
2026-05-04 20:43 42.22962 -83.33869 38403 ft 517 kts 81°